Regional Weather Roundup
Issued by NWS

Home | Current Version | Previous Version | Graphics & Text | Print | Product List | Glossary On
Versions: 1 2 3 4 5 6 7 8 9 10 11 12 13 14 15 16 17 18 19 20 21 22 23 24 25 26 27 28 29 30 31 32 33 34 35 36 37 38 39 40 41 42 43 44 45 46 47 48 49 50
000
ASUS43 KLSX 281507
RWRMO

WEATHER SUMMARY FOR MISSOURI
NATIONAL WEATHER SERVICE SPRINGFIELD MO
900 AM CST WED JAN 28 2015

NOTE: "FAIR" INDICATES FEW OR NO CLOUDS BELOW 12,000 FEET WITH NO
       SIGNIFICANT WEATHER AND/OR OBSTRUCTIONS TO VISIBILITY.
       CURRENT SKY AND/OR WEATHER CONDITIONS ARE NOT AVAILABLE FOR
       CHILLICOTHE AND FARMINGTON.

MOZ001>031-035>038-043-044-053-054-281600-
...NORTHERN AND WESTERN MISSOURI...

CITY           SKY/WX    TMP DP  RH WIND       PRES   REMARKS
KANSAS CTY INT PTSUNNY   46  33  60 S15       29.91F
KANSAS C DTWN  SUNNY     49  34  56 S8        29.92F
LEE`S SUMMIT   SUNNY     45  32  60 S13G18    29.94F
ST JOSEPH      SUNNY     40  31  70 SE8       29.91F
CHILLICOTHE      N/A     36  31  82 SE12      30.00F WCI  28
KIRKSVILLE     SUNNY     32  30  92 SE17G25   30.05F FOG     WCI  21

$$
MOZ066>068-077>081-088>096-101>105-281600-
...SOUTHWEST MISSOURI...

CITY           SKY/WX    TMP DP  RH WIND       PRES   REMARKS
SPRINGFIELD    SUNNY     42  34  73 SE18      30.08R
JOPLIN         SUNNY     54  34  46 S14       30.03S

$$
MOZ032>034-039>042-045>050-055>058-069>072-281600-
...CENTRAL MISSOURI...

CITY           SKY/WX    TMP DP  RH WIND       PRES   REMARKS
COLUMBIA       SUNNY     36  30  79 SE18      30.09R WCI  26
JEFFERSON CITY SUNNY     38  30  73 SE13      30.13R WCI  30
ROLLA          SUNNY     36  28  73 S20       30.12R WCI  25
SEDALIA        SUNNY     45  34  65 S16G24    30.03F
WHITEMAN AFB   SUNNY     44  35  70 S16       29.99F
WARRENSBURG    SUNNY     46  34  61 SE12      29.98F
OSAGE BEACH    SUNNY     41  30  65 S17       30.10S

$$
MOZ051-052-059>065-281600-
...EAST CENTRAL MISSOURI...

CITY           SKY/WX    TMP DP  RH WIND       PRES   REMARKS
ST LOUIS INTL  MOSUNNY   34  27  75 SE17G23   30.22F WCI  23
SPIRIT OF STL  MOSUNNY   34  26  72 SE7G18    30.21F WCI  28
ST CHARLES     SUNNY     32  29  88 SE14      30.22F WCI  22

$$
MOZ072>076-082>087-097>100-106>115-281600-
...SOUTH CENTRAL AND SOUTHEAST MISSOURI...

CITY           SKY/WX    TMP DP  RH WIND       PRES   REMARKS
CAPE GIRARDEAU SUNNY     34  31  88 SE9       30.31R WCI  27
FARMINGTON     SUNNY     32  27  80 MISG      30.26F
POPLAR BLUFF   SUNNY     34  28  79 SE8       30.30R WCI  27
WEST PLAINS    SUNNY     34  28  79 SE12      30.21S WCI  25

$$



USA.gov is the U.S. government's official web portal to all federal, state and local government web resources and services.